Location: Bazincourt
(49.3127°N, 1.7662°E)
Time: 06:47:40
(UTC+00:00)

Daily predictions for brighter satellites

Satellite Brightness Start Highest point End
(mag) Time Altitude Azimuth Time Altitude Azimuth Time Altitude Azimuth
USA 215 3.3 17:27:00 10° ESE 17:33:33 77° NNE 17:40:08 10° WNW
Landsat 4 4.4 17:32:15 10° S 17:35:49 58° WSW 17:39:26 10° NNW
Cosmos 540 Rocket 4.0 17:33:39 10° NNW 17:38:47 67° WSW 17:43:51 10° S
Cosmos 2322 4.4 17:35:49 10° SSE 17:40:54 34° ESE 17:45:59 10° NE
Cosmos 1892 3.4 17:39:22 10° SSW 17:43:04 58° WNW 17:46:49 10° N
ATLAS 2AS CENTAUR R/B 4.4 17:37:22 10° NW 17:43:40 38° WSW 17:49:38 10° S
Radarsat Rocket 4.3 17:37:44 10° SSE 17:44:03 88° ENE 17:51:14 10° NNW
Nadezhda 2 Rocket 4.5 17:38:11 10° N 17:44:23 83° E 17:50:29 10° S
Cosmos 1340 2.5 17:43:12 10° N 17:46:52 64° ENE 17:50:30 10° SSE
Cosmos 1844 Rocket 3.9 17:42:09 10° NW 17:47:30 48° WSW 17:52:48 10° S
Lacrosse 4 Rocket 3.5 17:51:46 10° N 17:53:37 12° NNE 17:55:26 10° NE
Cosmos 1461 4.0 17:50:03 10° WSW 17:54:13 44° NW 17:58:35 10° NNE
NOAA 6 4.4 17:49:36 10° S 17:54:46 72° WSW 17:59:58 10° NNW
CZ-4 R/B 2.6 17:51:59 10° ESE 17:55:08 22° ENE 17:58:14 10° NNE
CZ-4 R/B 4.4 17:52:40 10° SSE 17:56:46 71° ENE 18:00:54 10° N
RESURS DK-1 4.4 17:53:07 10° NW 17:56:49 32° WSW 18:00:30 10° S
SL-08 R/B 3.7 17:53:50 10° NNE 17:58:48 74° WNW 18:03:42 10° SSW
PAYLOAD B 4.3 17:54:57 10° SE 18:00:17 55° ENE 18:05:40 10° N
Cosmos 841 Rocket 3.8 17:55:39 10° NNW 18:00:55 72° WSW 18:06:08 10° SSE
Cosmos 1814 Rocket 4.1 17:55:53 10° NNW 18:01:13 60° ENE 18:06:29 10° SE
Cosmos 1869 3.5 18:01:26 10° NNW 18:05:23 75° W 18:09:20 10° S
DMSP B5D2-2 4.3 18:03:36 10° NNE 18:08:53 77° WNW 18:14:08 10° SSW
Cosmos 2058 4.2 18:06:46 10° SE 18:09:44 19° E 18:12:09 12° NE
PSLV R/B 3.8 18:06:39 10° SE 18:10:13 49° ENE 18:13:54 10° N
ATLAS 5 CENTAUR R/B 3.6 18:08:09 10° NNW 18:11:12 17° NNE 18:13:56 12° NE
Cosmos 1386 Rocket 4.4 18:06:13 10° N 18:12:16 74° E 18:18:21 10° SSE
Cosmos 1850 Rocket 4.0 18:08:15 10° SSW 18:13:26 89° ESE 18:18:39 10° NNE
SKYMED 2 3.5 18:09:36 10° NNE 18:13:58 87° E 18:18:20 10° SSW
Okean O Rocket 2.3 18:11:03 10° SE 18:15:00 33° ENE 18:18:59 10° N
YAOGAN 1 2.6 18:11:07 10° SSE 18:15:18 54° ENE 18:19:32 10° N
Cosmos 2219 Rocket 2.1 18:10:15 10° SSW 18:15:49 73° ESE 18:21:26 10° NNE
CZ-4B R/B 3.3 18:11:26 10° SE 18:16:40 53° ENE 18:22:02 10° N
BlueWalker 3 1.9 18:12:49 10° WNW 18:16:43 89° N 18:19:40 17° ESE
Cosmos 1356 3.3 18:16:50 10° N 18:19:49 47° ENE 18:22:46 10° SSE
Cosmos 2360 Rocket 2.9 18:14:23 10° SW 18:19:55 55° WNW 18:25:32 10° NNE
Cosmos 1606 2.6 18:17:14 10° N 18:21:03 67° ENE 18:24:50 10° SSE
Cosmos 2058 Rocket 3.6 18:17:20 10° NNW 18:21:43 62° W 18:26:06 10° S
CZ-4B DEB 4.3 18:16:55 10° SSE 18:22:22 81° WSW 18:27:53 10° NNW
Cosmos-2242 3.4 18:18:33 10° N 18:22:32 38° ENE 18:26:30 10° SE
Cosmos 1745 Rocket 3.9 18:16:39 10° N 18:22:54 81° E 18:29:05 10° SSE
Lacrosse 5 2.7 18:18:25 10° W 18:23:18 43° NNW 18:27:06 16° NE
Okean 1-7 Rocket 3.7 18:20:14 10° S 18:24:33 53° E 18:28:57 10° NNE
Cosmos 1741 Rocket 4.2 18:19:51 10° SSW 18:25:10 79° WNW 18:30:33 10° NNE
Okean-O 4.1 18:28:32 19° NE 18:28:32 19° NE 18:31:11 10° NNE
Cosmos 1633 4.4 18:27:41 10° SW 18:30:40 30° WNW 18:33:41 10° N
BREEZE-M DEB (TANK) 3.9 18:16:16 10° SW 18:30:47 58° SSE 18:33:28 24° E
Cosmos 2237 Rocket 3.1 18:27:44 10° SSE 18:32:21 26° ESE 18:33:55 23° ENE
NOSS 8 (A) 4.3 18:28:48 10° SSW 18:32:31 64° SE 18:33:43 33° ENE
MINOTAUR 4 R/B 4.2 18:31:48 17° NNE 18:34:07 44° E 18:37:23 10° S
Lacrosse 5 rocket 4.3 18:33:42 10° WSW 18:34:50 11° SW 18:35:58 10° SW
Cosmos 968 Rocket 3.5 18:30:10 10° S 18:35:16 58° ESE 18:40:27 10° NNE
Cosmos 2278 Rocket 2.2 18:30:01 10° NNW 18:35:38 60° ENE 18:41:02 11° SE
Cosmos 2322 Rocket 3.8 18:31:45 10° WSW 18:36:47 33° NW 18:41:51 10° NNE
SJ-6B 3.6 18:36:32 30° ENE 18:36:52 30° ENE 18:40:25 10° N
Cosmos 1709 Rocket 3.8 18:34:24 10° N 18:40:34 72° E 18:46:39 10° SSE
ATLAS CENTAUR R/B 4.0 18:41:22 10° NNW 18:42:57 12° N 18:44:30 10° N
Cosmos 1980 4.3 18:38:34 10° SSE 18:43:32 33° ESE 18:45:15 27° ENE
Resurs 1-3 4.5 18:44:18 29° ENE 18:44:18 29° ENE 18:47:50 10° N
Cosmos 2208 Rocket 3.9 18:39:29 10° NNW 18:44:40 67° ENE 18:49:52 10° SSE
Cosmos 2369 Rocket 3.8 18:42:56 10° N 18:46:17 16° NNE 18:46:47 16° NE
CSL-04 Rocket 4.1 18:43:57 24° ESE 18:46:28 38° ENE 18:51:27 10° N
Iridium 2 3.4 18:43:15 10° N 18:46:54 85° E 18:50:32 10° S
USA 81 3.9 18:41:47 10° S 18:47:02 77° E 18:52:19 10° N
Cosmos 1943 Rocket 2.9 18:42:09 10° NNW 18:47:16 33° NE 18:48:39 29° ENE
Cosmos 2333 Rocket 3.0 18:43:58 10° SW 18:49:27 50° NW 18:55:02 10° NNE
Cosmos 1570 Rocket 4.0 18:45:23 10° NNW 18:50:47 89° WSW 18:56:07 10° SSE
MOS 1-B 4.5 18:48:23 10° SSE 18:54:11 78° WSW 19:00:03 10° NNW
IGS 5A 3.4 18:52:10 25° SE 18:54:22 57° ENE 18:58:24 10° N
Cosmos 1602 Rocket 3.4 18:50:08 10° S 18:54:25 72° E 18:58:45 10° NNE
CZ-4C R/B 4.5 18:51:01 10° N 18:54:31 40° WNW 18:57:50 10° SW
Cosmos 1356 Rocket 3.2 18:50:47 10° S 18:54:41 60° E 18:56:49 25° NNE
Cosmos 44 Rocket 4.1 18:50:53 10° WSW 18:55:26 46° NW 18:59:07 15° NNE
SL-16 R/B 4.4 18:52:04 10° W 18:56:18 21° NW 19:00:34 10° N
Cosmos 883 Rocket 4.4 18:53:53 10° S 19:00:11 84° E 19:06:34 10° N
Spot 1 3.9 18:59:32 37° NE 19:00:54 58° ESE 19:04:57 10° S
Cosmos 2074 Rocket 4.3 18:55:04 10° N 19:01:00 41° ENE 19:03:04 32° ESE
COSMO-SKYMED 1 4.3 18:57:52 10° N 19:01:47 33° WNW 19:05:41 10° SW
COSMOS 2428 2.7 18:58:05 10° SSW 19:03:46 82° WNW 19:09:08 12° NNE
Cosmos 2184 Rocket 4.3 18:58:49 10° N 19:04:45 42° ENE 19:06:16 36° ESE
SL-4 R/B 3.7 19:03:32 10° W 19:06:30 25° SW 19:08:15 17° S
Gblst 52 Del rocket 4.1 19:02:35 10° WNW 19:08:10 74° N 19:09:53 45° E
Cosmos 1812 Rocket 3.8 19:05:00 10° NNW 19:09:26 70° W 19:13:50 10° S
NOSS 0 Rocket 3.9 19:03:17 10° SSW 19:09:27 66° ESE 19:13:26 23° NE
Cosmos 1758 Rocket 3.4 19:05:07 10° S 19:09:28 88° ESE 19:13:54 10° N
Cosmos 1174 4.4 19:07:05 10° SW 19:12:33 73° NW 19:14:32 34° NNE
Landsat 7 3.7 19:15:20 58° E 19:15:43 61° ENE 19:20:24 10° N
USA 215 4.2 19:10:41 10° SSE 19:16:52 43° SW 19:23:05 10° WNW
Cosmos 2154 Rocket 4.4 19:11:29 10° N 19:17:22 41° ENE 19:17:22 41° ENE
Meteor 2-2 Rocket 4.2 19:20:35 10° NNW 19:26:18 83° W 19:32:04 10° S
CZ-4 R/B 2.6 19:25:57 10° S 19:29:48 41° W 19:33:37 10° NNW
Lacrosse 4 Rocket 2.6 19:29:04 10° NNW 19:31:44 32° N 19:31:44 32° N
Resurs 01 Rocket 3.7 19:40:04 17° N 19:40:04 17° N 19:41:14 10° N
Cosmos 2221 4.4 19:34:29 10° N 19:36:00 21° N 19:36:00 21° N
Cosmos 2285 Rocket 3.9 19:34:33 10° NNW 19:40:51 62° ENE 19:41:01 62° ENE
Cosmos 2058 4.0 19:42:13 10° SSW 19:46:12 44° WNW 19:48:30 22° NNW
Okean O Rocket 3.4 19:47:25 10° SSW 19:51:20 31° W 19:55:17 10° NNW
BlueWalker 3 4.1 19:51:54 10° W 19:54:29 22° SW 19:54:29 22° SW
ATLAS 5 CENTAUR R/B 3.1 19:52:08 10° NNW 19:55:18 33° N 19:55:18 33° N
Cosmos 2219 Rocket 4.1 19:55:44 10° W 20:00:20 26° NW 20:04:52 10° NNE
Cosmos 2297 4.4 19:57:42 10° NNW 20:01:47 43° N 20:01:47 43° N
Okean-O 4.1 20:06:02 32° NNW 20:06:02 32° NNW 20:08:32 10° NNW
Lacrosse 5 3.2 20:02:29 10° WNW 20:06:18 33° NNW 20:06:18 33° NNW
Cosmos 2237 Rocket 2.6 20:10:23 10° SW 20:15:51 60° WNW 20:15:51 60° WNW
Cosmos 2278 Rocket 4.1 20:14:43 10° NW 20:19:19 26° WSW 20:22:59 14° SSW
Cosmos 909 Rocket 4.2 20:12:29 10° NW 20:19:28 75° WSW 20:19:28 75° WSW
Cosmos 1980 4.5 20:21:59 10° SW 20:27:12 48° WNW 20:27:12 48° WNW
Cosmos 1943 Rocket 3.1 20:25:47 10° NW 20:30:12 46° WNW 20:30:12 46° WNW
Cosmos 2369 Rocket 3.8 20:26:02 10° NNW 20:28:35 27° NNW 20:28:35 27° NNW
BREEZE-M DEB (TANK) 4.4 20:25:07 10° SW 20:39:13 64° SSW 20:39:13 64° SSW
